AirNav   Air Wisconsin Up To $57,000 Bonus
 
 1421 users online  

7MO0 Truman Medical Center East Heliport
Kansas City, Missouri, USA

GOING TO KANSAS CITY?


FAA INFORMATION EFFECTIVE 25 FEBRUARY 2021

Location

FAA Identifier: 7MO0
Lat/Long: 38-58-24.8500N 094-23-35.3200W
38-58.414167N 094-23.588667W
38.9735694,-94.3931444
(estimated)
Elevation: 983 ft. / 300 m (estimated)
Variation: 05E (1990)
From city: 7 miles S of KANSAS CITY, MO
Time zone: UTC -6 (UTC -5 during Daylight Saving Time)
Zip code: 64139

Heliport Operations

Heliport use: Private use, MEDICAL USE.
Activation date: 02/1993
Control tower: no
ARTCC: KANSAS CITY CENTER
FSS: COLUMBIA FLIGHT SERVICE STATION
Attendance: UNATNDD
Wind indicator: yes
Segmented circle: no
Lights: SS-SR
Beacon: white-green-yellow (heliport)
Operates sunset to sunrise.

Heliport Communications

WX ASOS at LXT (1.3 nm SE): 124.175 (816-347-9807)
WX ASOS at MKC (13 nm NW): PHONE 816-329-2843
WX ASOS at OJC (18 nm SW): 119.35 (913-780-6969)

Nearby radio navigation aids

VOR radial/distance  VOR name  Freq  Var
ANXr232/14.3NAPOLEON VORTAC114.0007E
MCIr134/24.6KANSAS CITY VORTAC113.2505E

Heliport Services

Runway Information

Helipad H1

Dimensions: 35 x 35 ft. / 11 x 11 m
Surface: concrete
Runway edge lights: PERI
AND FLOOD LGTS.
Latitude: 38-58.414167N
Longitude: 094-23.588667W
Elevation: 983.0 ft.
Traffic pattern: leftleft

Heliport Ownership and Management from official FAA records

Ownership: Privately-owned
Owner: TRUMAN MEDICAL CENTER EAST
7900 LEE'S SUMMIT ROAD
KANSAS CITY, MO 64139
Phone 816-373-4415
Manager: DIRECTOR OF FACILITIES
7900 LEE'S SUMMIT ROAD
KANSAS CITY, MO 64139
Phone 816-373-4415
EXT 1292.

Additional Remarks

A52-H1 40 FT BLDG 90 FT W.
OWNER DESIRES ARPT NOT BE CHARTED.
FOR CD CTC KANSAS CITY APCH AT 816-329-2710.

Instrument Procedures

There are no published instrument procedures at 7MO0.

Some nearby airports with instrument procedures:

KLXT - Lee's Summit Municipal Airport (1 nm SE)
3GV - East Kansas City Airport (9 nm E)
KMKC - Charles B Wheeler Downtown Airport (13 nm NW)
KOJC - Johnson CountyExecutive Airport (18 nm SW)
KGPH - Midwest NTL Air Center Airport (22 nm N)
 
Loc | Ops | Rwys | IFR | FBO | Links
Com | Nav | Svcs | Stats | Notes
Area around 7MO0 (Truman Medical Center East Heliport)
 
Road maps at: MapQuest Bing Google
 
Aerial photo
No photo
 
Sectional chart

 
Airport distance calculator
Flying to Truman Medical Center East Heliport? Find the distance to fly.

From to 7MO0

Sunrise and sunset
Times for 03-Mar-2021
 Local
(UTC-6)
 Zulu
(UTC)
Morning civil twilight06:2112:21
Sunrise06:4812:48
Sunset18:1100:11
Evening civil twilight18:3800:38

Current date and time
Zulu (UTC)  03-Mar-2021 22:48:48
Local (UTC-6)  03-Mar-2021 16:48:48
 
METAR
KLXT 032153Z AUTO 22006KT 10SM CLR 21/M06 A3000 RMK AO2 SLP157 T02111061 TSNO
KMKC 
13nm NW 
032154Z 24006KT 10SM CLR 22/M05 A2998 RMK AO2 SLP151 T02171050
KOJC 
18nm SW 
032153Z 21006KT 10SM CLR 21/M04 A3000 RMK AO2 SLP156 T02061044
TAF
KMKC 
13nm NW 
031736Z 0318/0418 22006KT P6SM SKC FM040000 15004KT P6SM SKC
NOTAMs
Click for the latest NOTAMs
NOTAMs are issued by the DoD/FAA and will open in a separate window not controlled by AirNav.

 

 
 

Would you like to see your business listed on this page?

 If your business provides an interesting product or service to pilots, flight crews, aircraft, or users of the Truman Medical Center East Heliport, you should consider listing it here.  To start the listing process, click on the button below
 
Add a business
 

Other Pages about Truman Medical Center East Heliport

Update a link
 
Copyright © AirNav, LLC. All rights reserved. Privacy Policy  Contact